星链-31390 (STARLINK-31390 )

导读

STARLINK-31390是美国SpaceX公司星链星座的成员卫星,于2024年2月10日发射入轨,属于星链低轨互联网星座扩容部署的一部分。星链计划旨在打造全球覆盖的低轨卫星通信网络,为全球偏远地区及热点区域提供高速低延迟的宽带服务,该卫星可与其他星链卫星协同,为更多用户提供卫星互联网接入服务。

基本信息
目录编号:
58937
目录名称:
STARLINK-31390
国际标识:
2024-027G
轨道中心:
EARTH
卫星名称:
星链-31390
卫星全名:
星链-31390 (STARLINK-31390 )
卫星状态:
在轨 (已飞行859 天)
发射日期:
2024-02-10 UTC
国别 :
美国 (US)
星等 :
--
轨道信息
数据来源 国际轨道数据 AOE轨道数据
星历时间 2026-06-17T18:00:43+0800
19小时前
查看轨道信息
2026-06-18T02:00:00+0800
11小时前
查看轨道信息
半长轴 6853.376km 6853.36km
偏心率 0.0001354 0.000186
轨道倾角 53.160° 53.156°
近地点辐角 134.616° 109.864°
升交点赤经 206.641° 205.098°
平近点角 225.495° 284.777°
近地点 474.311km 473.948km
远地点 476.167km 476.498km
周期 94.106分钟 94.105分钟
每日圈数 15.301923 15.301975
详细信息
固有亮度:
5
最大亮度:
0.3
卫星平台:
Starlink v2.0 mini
覆盖范围:
全球
运营商:
太空探索技术公司
运营商所在国:
美国
制造商(研发单位):
太空探索技术公司
制造商所在国:
美国
使用方式:
暂无
卫星简介
星链(Starlink)计划是由太空探索技术公司(SpaceX)提出的一个巨型低轨卫星互联网星座项目,计划在2019年至2024年间在太空搭建由约1.2万颗卫星组成的“星链”网络,其中1584颗将部署在地球上空550千米处的近地轨道,并从2020年开始工作。该卫星仍在工作。
2D轨道图
3D轨道图
轨道高度分析图
轨道倾角分析图
轨道综合分析图
查看轨道综合分析图